Preview of NWS' New Version of Forecast
This preview is not operational and should not be used for support decisions.

Terminal Aerodrome Forecast (TAF)

Issued by National Weather Service (NWS)

                            
000
FTUS45 KBOI 182323
TAFMYL
TAF
KMYL 182323Z 1900/1924 19013G20KT P6SM SKC
     FM190200 VRB03KT P6SM SKC
     FM192000 20010G17KT P6SM SKC=